Tracking 19903 objects as of 17-Oct-2019
HD Live streaming from Space Station
objects crossing your sky now

SL-14 R/B

Track SL-14 R/B now!
10-day predictions
SL-14 R/B is classified as:


NORAD ID: 14820
Int'l Code: 1984-027B
Perigee: 611.0 km
Apogee: 638.9 km
Inclination: 82.5 °
Period: 97.1 minutes
Semi major axis: 6995 km
RCS: 3.863 m2 (large)
Launch date: March 15, 1984
Source: Commonwealth of Independent States (former USSR) (CIS)
Launch site: PLESETSK MISSILE AND SPACE COMPLEX (PKMTR)

Note: This is a ROCKET BODY
aabbcc
Your satellite tracking list
Your tracking list is empty




NASA's NSSDC Master Catalog

Two Line Element Set (TLE):
1 14820U 84027B   19289.08395818  .00000058  00000-0  40615-5 0  9991
2 14820  82.5401 270.4476 0019939 129.9952 230.3018 14.83641335922126
Source of the keplerian elements: AFSPC